Location: Ammerl�gen
(47.2167°N, 9.6000°E)
Time: 12:51:58
(UTC+00:00)

Iridium 4 Rocket - Pass Details

Date: 31 July 2021
Orbit: 583 x 905 km, 86.9° (Epoch: 25 September)

Event Time Altitude Azimuth Distance (km) Brightness Sun altitude
Rises 01:43:48 0° 352° (N) 3,404 7.6 -17.8°
Reaches altitude 10° 01:46:12 10° 348° (NNW) 2,502 6.8 -17.6°
Maximum altitude 01:51:43 53° 274° (W) 1,084 4.0 -17.0°
Enters shadow 01:54:51 26° 209° (SSW) 1,687 4.7 -16.7°
